This is the latest recevied weather packets stored in our database for station/object EA1IOK-13. If no packets are shown the sender has not sent any weather packets the latest 10 day(s).
| Time | Temp. | Humidity | Pressure | Rain* | Wind** | Luminosity | Snow |
|---|---|---|---|---|---|---|---|
| 1778145651 | 13.33° C | 81% | 1009.8 hPa | 0 mm | - | - | - |
| 1778142952 | 11.11° C | 92% | 1010.2 hPa | 0 mm | - | - | - |
| 1778142050 | 10° C | 95% | 1010.2 hPa | 0 mm | - | - | - |
| 1778141152 | 8.89° C | 97% | 1010.3 hPa | 0 mm | - | - | - |
| 1778140290 | 7.78° C | 97% | 1010.5 hPa | 0 mm | - | - | - |
| 1778140250 | 7.78° C | 97% | 1010.5 hPa | 0 mm | - | - | - |
| 1778139351 | 7.22° C | 97% | 1010.6 hPa | 0 mm | - | - | - |
| 1778135750 | 7.22° C | 97% | 1010.6 hPa | 0 mm | - | - | - |
| 1778134851 | 6.67° C | 97% | 1010.4 hPa | 0 mm | - | - | - |
| 1778132188 | 6.11° C | 97% | 1010.6 hPa | 0 mm | - | - | - |
| 1778132150 | 6.11° C | 97% | 1010.6 hPa | 0 mm | - | - | - |
| 1778131251 | 6.11° C | 96% | 1010.8 hPa | 0 mm | - | - | - |
| 1778128550 | 6.67° C | 96% | 1010.6 hPa | 0 mm | - | - | - |
| 1778127650 | 6.11° C | 96% | 1010.8 hPa | 0 mm | - | - | - |
| 1778126757 | 6.11° C | 96% | 1010.7 hPa | 0 mm | - | - | - |
| 1778124950 | 6.67° C | 95% | 1011.1 hPa | 0 mm | - | - | - |
| 1778122288 | 7.22° C | 94% | 1011.1 hPa | 0 mm | - | - | - |
| 1778122249 | 7.22° C | 94% | 1011.1 hPa | 0 mm | - | - | - |
| 1778121350 | 7.22° C | 94% | 1011.2 hPa | 0 mm | - | - | - |
| 1778119549 | 7.78° C | 94% | 1011.3 hPa | 0 mm | - | - | - |
| 1778118650 | 7.22° C | 93% | 1011.4 hPa | 0 mm | - | - | - |
| 1778117749 | 7.78° C | 93% | 1011.5 hPa | 0 mm | - | - | - |
| 1778116888 | 7.22° C | 93% | 1011.5 hPa | 0 mm | - | - | - |
| 1778116851 | 7.22° C | 93% | 1011.5 hPa | 0 mm | - | - | - |
| 1778114375 | 7.22° C | 93% | 1011.8 hPa | 0 mm | - | - | - |
* Rain latest hour (hover to see other rain measurements)
** Current wind speed in m/s (hover to see current wind gust speed)